Weather History for Waskish, MN

Change the Weather History Date:

Monday, February 4, 2013

  Actual Average (KBDE) Record (KBDE)
Temperature  
Mean Temperature -8 °F -  
Max Temperature 12 °F 17 °F 53 °F (1991)
Min Temperature -29 °F -7 °F -41 °F (1936)
Degree Days  
Heating Degree Days 74    
Moisture  
Dew Point -10 °F    
Average Humidity 75    
Maximum Humidity 92    
Minimum Humidity 62    
Precipitation  
Precipitation 0.02 in - - ()
Sea Level Pressure  
Sea Level Pressure 29.83 in    
Wind  
Wind Speed 2 mph (SSE)    
Max Wind Speed 9 mph    
Max Gust Speed 16 mph    
Visibility 8 miles    
Events Snow    
Averages and records for this station are not official NWS values.
T = Trace of Precipitation, MM = Missing Value Source: NWS Daily Summary

Daily Weather History Graph

Daily Weather History Graph

Search for Another Location

Airport:

Trip Planner

Search our weather history database for the weather conditions in past years. The results will help you decide how hot, cold, wet, or windy it might be!

Date:

Astronomy

Feb. 04, 2013 Rise Set
Actual Time 7:41 AM CST 5:23 PM CST
Civil Twilight 7:08 AM CST 5:56 PM CST
Nautical Twilight 6:31 AM CST 6:33 PM CST
Astronomical Twilight 5:55 AM CST 7:09 PM CST
Moon 2:24 AM CST (2/4) 11:40 AM CST (2/4)
Length of Visible Light 10h 47m
Length of Day
9h 41m
Last Quarter, 37% of the Moon is Illuminated
Feb 4
Last Quarter
Feb 10
New
Feb 17
First Quarter
Feb 25
Full
Mar 4
Last Quarter

Hourly Weather History & Observations

Time (CST) Temp. Windchill Dew Point Humidity Pressure Visibility Wind Dir Wind Speed Gust Speed Precip Events Conditions
12:14 AM -22.0 °F - -27.4 °F 76% 29.99 in 10.0 mi Calm Calm - N/A   Clear
12:33 AM -23.8 °F - -29.2 °F 76% 30.00 in 10.0 mi Calm Calm - N/A   Clear
12:54 AM -23.8 °F - -29.2 °F 76% 30.00 in 10.0 mi Calm Calm - N/A   Clear
1:14 AM -25.6 °F - -31.0 °F 76% 29.99 in 10.0 mi Calm Calm - N/A   Clear
1:33 AM -25.6 °F - -31.0 °F 76% 29.99 in 10.0 mi Calm Calm - N/A   Clear
1:54 AM -25.6 °F - -31.0 °F 76% 29.99 in 10.0 mi Calm Calm - N/A   Clear
2:14 AM -25.6 °F - -32.8 °F 69% 29.99 in 10.0 mi Calm Calm - N/A   Clear
2:33 AM -27.4 °F - -32.8 °F 75% 30.00 in 10.0 mi Calm Calm - N/A   Clear
2:54 AM -27.4 °F - -32.8 °F 75% 29.99 in 10.0 mi Calm Calm - N/A   Clear
3:13 AM -27.4 °F - -32.8 °F 75% 30.00 in 10.0 mi Calm Calm - N/A   Clear
4:54 AM -29.2 °F - -34.6 °F 75% 30.00 in 10.0 mi Calm Calm - N/A   Clear
5:13 AM -27.4 °F - -34.6 °F 69% 29.99 in 10.0 mi Calm Calm - N/A   Clear
5:33 AM -29.2 °F - -34.6 °F 75% 29.99 in 10.0 mi Calm Calm - N/A   Clear
5:54 AM -29.2 °F - -36.4 °F 68% 29.98 in 10.0 mi Calm Calm - N/A   Clear
6:13 AM -29.2 °F - -36.4 °F 68% 29.98 in 10.0 mi Calm Calm - N/A   Clear
6:33 AM -29.2 °F - -36.4 °F 68% 29.98 in 10.0 mi Calm Calm - N/A   Clear
6:54 AM -29.2 °F - -36.4 °F 68% 29.98 in 10.0 mi Calm Calm - N/A   Clear
7:13 AM -29.2 °F - -36.4 °F 68% 29.98 in 10.0 mi Calm Calm - N/A   Clear
7:33 AM -29.2 °F - -34.6 °F 75% 29.98 in 10.0 mi Calm Calm - N/A   Clear
7:54 AM -29.2 °F - -34.6 °F 75% 29.98 in 10.0 mi Calm Calm - N/A   Clear
8:13 AM -25.6 °F - -32.8 °F 69% 29.97 in 10.0 mi Calm Calm - N/A   Scattered Clouds
8:33 AM -20.2 °F - -25.6 °F 76% 29.97 in 10.0 mi Calm Calm - N/A   Overcast
8:54 AM -14.8 °F - -20.2 °F 77% 29.96 in 10.0 mi Calm Calm - N/A   Overcast
9:13 AM -11.2 °F - -14.8 °F 84% 29.95 in 10.0 mi Calm Calm - N/A   Overcast
9:33 AM -7.6 °F - -11.2 °F 84% 29.95 in 10.0 mi Calm Calm - N/A   Overcast
9:54 AM -4.0 °F -12.4 °F -7.6 °F 85% 29.96 in 10.0 mi South 3.5 mph - N/A   Overcast
10:13 AM -2.2 °F - -5.8 °F 85% 29.95 in 10.0 mi Calm Calm - N/A   Overcast
10:34 AM -0.4 °F -8.3 °F -4.0 °F 85% 29.94 in 10.0 mi SE 3.5 mph - N/A   Overcast
10:54 AM 1.4 °F -11.3 °F -2.2 °F 85% 29.93 in 10.0 mi SSE 6.9 mph - N/A   Overcast
11:13 AM 1.4 °F -11.3 °F -0.4 °F 92% 29.92 in 10.0 mi SSE 6.9 mph - N/A   Overcast
11:34 AM 3.2 °F -6.2 °F -0.4 °F 85% 29.91 in 10.0 mi South 4.6 mph - N/A   Overcast
11:54 AM 5.0 °F -5.6 °F -2.2 °F 72% 29.89 in 10.0 mi South 5.8 mph - N/A   Overcast
12:13 PM 6.8 °F -2.0 °F -2.2 °F 67% 29.89 in 10.0 mi South 4.6 mph - N/A   Overcast
12:34 PM 6.8 °F -0.1 °F -2.2 °F 67% 29.91 in 10.0 mi SW 3.5 mph - N/A   Overcast
12:54 PM 6.8 °F -0.1 °F -2.2 °F 67% 29.90 in 10.0 mi SW 3.5 mph - N/A   Overcast
1:13 PM 8.6 °F -1.3 °F -2.2 °F 62% 29.89 in 10.0 mi SSE 5.8 mph - N/A   Overcast
1:34 PM 8.6 °F -2.6 °F -2.2 °F 62% 29.88 in 10.0 mi South 6.9 mph - N/A   Overcast
1:53 PM 8.6 °F -1.3 °F -2.2 °F 62% 29.85 in 10.0 mi SSE 5.8 mph - N/A   Overcast
2:13 PM 8.6 °F -3.7 °F -2.2 °F 62% 29.84 in 10.0 mi SE 8.1 mph - N/A   Overcast
2:34 PM 8.6 °F 2.0 °F -0.4 °F 67% 29.84 in 10.0 mi South 3.5 mph - N/A   Overcast
2:53 PM 10.4 °F -1.5 °F -0.4 °F 62% 29.83 in 10.0 mi South 8.1 mph - N/A   Overcast
3:13 PM 10.4 °F 0.8 °F -0.4 °F 62% 29.81 in 10.0 mi SSE 5.8 mph - N/A   Overcast
3:34 PM 10.4 °F -0.4 °F -0.4 °F 62% 29.80 in 10.0 mi SSE 6.9 mph - N/A   Overcast
3:53 PM 8.6 °F -1.3 °F -0.4 °F 67% 29.79 in 10.0 mi SSE 5.8 mph - N/A   Overcast
4:13 PM 10.4 °F 2.2 °F -0.4 °F 62% 29.78 in 10.0 mi SSE 4.6 mph - N/A   Overcast
4:34 PM 8.6 °F -2.6 °F -0.4 °F 67% 29.77 in 10.0 mi SSE 6.9 mph - N/A   Overcast
4:53 PM 8.6 °F -2.6 °F -0.4 °F 67% 29.75 in 10.0 mi SE 6.9 mph - N/A   Overcast
5:13 PM 8.6 °F 0.1 °F -0.4 °F 67% 29.75 in 10.0 mi SSE 4.6 mph - N/A   Overcast
5:34 PM 8.6 °F 0.1 °F -0.4 °F 67% 29.73 in 10.0 mi SSE 4.6 mph - N/A   Overcast
5:53 PM 8.6 °F -2.6 °F -0.4 °F 67% 29.72 in 10.0 mi SE 6.9 mph - N/A Snow Light Snow
6:13 PM 8.6 °F -3.7 °F 1.4 °F 73% 29.71 in 7.0 mi ESE 8.1 mph - N/A Snow Light Snow
6:34 PM 8.6 °F -2.6 °F 1.4 °F 73% 29.69 in 7.0 mi ESE 6.9 mph - N/A Snow Light Snow
6:53 PM 8.6 °F -2.6 °F 1.4 °F 73% 29.69 in 4.0 mi SE 6.9 mph - N/A Snow Light Snow
7:14 PM 8.6 °F -2.6 °F 3.2 °F 79% 29.68 in 1.8 mi SE 6.9 mph - N/A Snow Light Snow
7:34 PM 8.6 °F 0.1 °F 3.2 °F 79% 29.67 in 2.0 mi SE 4.6 mph - N/A Snow Light Snow
7:53 PM 8.6 °F -2.6 °F 5.0 °F 85% 29.65 in 1.8 mi SE 6.9 mph - N/A Snow Light Snow
8:14 PM 8.6 °F -3.7 °F 5.0 °F 85% 29.62 in 1.8 mi SE 8.1 mph - N/A Snow Light Snow
8:34 PM 8.6 °F -3.7 °F 6.8 °F 92% 29.60 in 2.0 mi SE 8.1 mph - N/A Snow Light Snow
8:53 PM 8.6 °F -4.7 °F 6.8 °F 92% 29.58 in 2.0 mi SE 9.2 mph 16.1 mph 0.01 in Snow Light Snow
9:14 PM 10.4 °F 4.0 °F 6.8 °F 85% 29.59 in 3.0 mi SSE 3.5 mph - N/A Snow Light Snow
9:34 PM 10.4 °F 4.0 °F 6.8 °F 85% 29.58 in 2.0 mi SSE 3.5 mph - N/A Snow Light Snow
9:53 PM 10.4 °F 2.2 °F 8.6 °F 92% 29.57 in 2.5 mi SSE 4.6 mph - N/A Snow Light Snow
10:14 PM 10.4 °F 0.8 °F 8.6 °F 92% 29.56 in 3.0 mi South 5.8 mph - N/A Snow Light Snow
10:34 PM 10.4 °F 0.8 °F 8.6 °F 92% 29.56 in 7.0 mi SSE 5.8 mph - 0.01 in Snow Light Snow
10:53 PM 10.4 °F 4.0 °F 8.6 °F 92% 29.55 in 10.0 mi South 3.5 mph - 0.01 in   Overcast
11:14 PM 12.2 °F 4.3 °F 8.6 °F 85% 29.56 in 7.0 mi SSE 4.6 mph - N/A Snow Light Snow
11:33 PM 12.2 °F - 8.6 °F 85% 29.55 in 4.0 mi Calm Calm - N/A Snow Light Snow
11:53 PM 12.2 °F 2.9 °F 8.6 °F 85% 29.54 in 3.0 mi SE 5.8 mph - N/A Snow Light Snow